Location: Medlow Airstrip Trail, Medlow Bath NSW 2780, Australia
(33.6682°S, 150.3233°E)
Time: 02:09:16
(UTC+10:00)

Transit 4A - All Passes

Search period start: 24 September 2019 00:00
Search period end: 04 October 2019 00:00
Orbit: 865 x 979 km, 66.8° (Epoch: 22 September)

Date Brightness Start Highest point End Pass type
(mag) Time Alt. Az. Time Alt. Az. Time Alt. Az.
24 Sep - 06:22:56 10° SSE 06:26:23 15° SE 06:29:52 10° E daylight
24 Sep - 08:07:14 10° SSW 08:13:29 87° WNW 08:19:50 10° NNE daylight
24 Sep - 09:58:05 10° W 09:58:59 10° W 09:59:52 10° WNW daylight
24 Sep - 21:24:38 10° N 21:29:51 36° ENE 21:35:09 10° SE night (unlit)
24 Sep - 23:11:11 10° WNW 23:16:10 29° SW 23:21:17 10° S visible
25 Sep - 06:31:20 10° S 06:36:04 22° SE 06:40:51 10° ENE daylight
25 Sep - 08:16:40 10° SW 08:22:46 58° WNW 08:28:57 10° N daylight
25 Sep - 21:33:24 10° N 21:39:03 57° ENE 21:44:49 10° SE night (unlit)
25 Sep - 23:21:37 10° W 23:25:46 20° SW 23:29:59 10° S visible
26 Sep - 06:40:08 10° S 06:45:38 32° SE 06:51:14 10° ENE daylight
26 Sep - 08:26:19 10° SW 08:31:59 37° WNW 08:37:44 10° N daylight
26 Sep - 21:42:31 10° NNW 21:48:19 90° ENE 21:54:14 10° SSE night (unlit)
26 Sep - 23:32:46 10° WSW 23:35:29 13° SW 23:38:13 10° SSW visible
27 Sep - 06:49:08 10° SSW 06:55:08 48° ESE 07:01:14 10° NE daylight
27 Sep - 08:36:16 10° SW 08:41:08 24° WNW 08:46:03 10° NNW daylight
27 Sep - 20:08:28 10° NE 20:11:56 16° ENE 20:15:26 10° ESE night (unlit)
27 Sep - 21:51:58 10° NW 21:57:39 58° WSW 22:03:30 10° SSE night (unlit)
28 Sep - 05:15:02 10° SSE 05:17:10 12° SE 05:19:17 10° ESE visible
28 Sep - 06:58:17 10° SSW 07:04:32 73° ESE 07:10:53 10° NNE daylight
28 Sep - 08:46:54 10° WSW 08:50:13 15° WNW 08:53:35 10° NW daylight
28 Sep - 20:16:17 10° NNE 20:21:01 27° ENE 20:25:50 10° SE night (unlit)
28 Sep - 22:01:44 10° NW 22:07:06 38° WSW 22:12:35 10° S visible
29 Sep - 05:22:53 10° S 05:26:55 17° SE 05:30:58 10° E daylight
29 Sep - 07:07:37 10° SSW 07:13:52 76° WNW 07:20:13 10° NNE daylight
29 Sep - 20:24:45 10° N 20:30:10 42° ENE 20:35:41 10° SE night (unlit)
29 Sep - 22:11:53 10° WNW 22:16:38 25° SW 22:21:28 10° S visible
30 Sep - 05:31:28 10° S 05:36:33 25° SE 05:41:42 10° ENE daylight
30 Sep - 07:17:08 10° SW 07:23:07 49° WNW 07:29:13 10° N daylight
30 Sep - 20:33:39 10° NNW 20:39:23 68° ENE 20:45:15 10° SSE visible
30 Sep - 22:22:32 10° W 22:26:16 17° SW 22:30:05 10° S visible
01 Oct - 05:40:21 10° S 05:46:06 37° ESE 05:51:55 10° NE daylight
01 Oct - 07:26:53 10° SW 07:32:19 32° WNW 07:37:50 10° NNW daylight
01 Oct - 19:01:20 10° ENE 19:03:10 12° ENE 19:05:02 10° E night (unlit)
01 Oct - 20:42:53 10° NNW 20:48:41 78° WSW 20:54:37 10° SSE visible
01 Oct - 22:34:10 10° WSW 22:36:01 11° SW 22:37:53 10° SSW visible
02 Oct - 05:49:25 10° SSW 05:55:33 56° ESE 06:01:47 10° NE daylight
02 Oct - 07:37:01 10° WSW 07:41:27 20° WNW 07:45:55 10° NNW daylight
02 Oct - 19:08:11 10° NNE 19:12:13 20° ENE 19:16:17 10° ESE visible
02 Oct - 20:52:27 10° NW 20:58:04 50° WSW 21:03:49 10° SSE visible
03 Oct - 04:14:41 10° SSE 04:17:42 14° SE 04:20:45 10° ESE visible
03 Oct - 05:58:39 10° SSW 06:04:56 84° ESE 06:11:19 10° NNE daylight
03 Oct - 07:48:09 10° W 07:50:31 12° WNW 07:52:53 10° NW daylight
03 Oct - 19:16:17 10° NNE 19:21:19 32° ENE 19:26:26 10° SE visible
03 Oct - 21:02:21 10° WNW 21:07:32 33° SW 21:12:49 10° S visible
